Brandy Station, VA

4:25 PM EDT on August 27, 2016 (GMT -0400)
Culpeper Regional

Weather History for KCJR - January, 2012

Change the Weather History Date:

Tuesday, January 24, 2012

  Actual Average (KOMH) Record (KOMH)
Temperature  
Mean Temperature 48 °F -  
Max Temperature 60 °F 46 °F 73 °F (1950)
Min Temperature 35 °F 23 °F 5 °F (1963)
Degree Days  
Heating Degree Days 18    
Moisture  
Dew Point 42 °F    
Average Humidity 87    
Maximum Humidity 100    
Minimum Humidity 45    
Precipitation  
Precipitation 0.00 in - - ()
Sea Level Pressure  
Sea Level Pressure 30.07 in    
Wind  
Wind Speed 3 mph (SW)    
Max Wind Speed 7 mph    
Max Gust Speed -    
Visibility 7 miles    
Events Fog    
Averages and records for this station are not official NWS values.
T = Trace of Precipitation, MM = Missing Value Source: NWS Daily Summary

Daily Weather History Graph

Daily Weather History Graph

Search for Another Location

Airport or City:

Trip Planner

Search our weather history database for the weather conditions in past years. The results will help you decide how hot, cold, wet, or windy it might be!

Date:

Astronomy

Jan. 24, 2012 Rise Set
Actual Time 7:23 AM EST 5:23 PM EST
Civil Twilight 6:54 AM EST 5:52 PM EST
Nautical Twilight 6:22 AM EST 6:24 PM EST
Astronomical Twilight 5:51 AM EST 6:56 PM EST
Moon 7:53 AM EST (1/24) 7:11 PM EST (1/24)
Length of Visible Light 10h 57m
Length of Day
10h 00m
New Moon, 2% of the Moon is Illuminated
Jan 24
New Moon
Jan 30
First Quarter
Feb 7
Full
Feb 14
Last Quarter
Feb 21
New

Hourly Weather History & Observations

Time (EST) Temp. Windchill Dew Point Humidity Pressure Visibility Wind Dir Wind Speed Gust Speed Precip Events Conditions
12:15 AM 44.6 °F 42.2 °F 42.8 °F 93% 29.95 in 10.0 mi SSW 4.6 mph - N/A   Overcast
12:35 AM 44.6 °F 42.2 °F 42.8 °F 93% 29.95 in 10.0 mi South 4.6 mph - N/A   Overcast
12:55 AM 44.6 °F 40.7 °F 42.8 °F 93% 29.96 in 10.0 mi SSW 6.9 mph - N/A   Overcast
1:15 AM 44.6 °F 41.4 °F 42.8 °F 93% 29.97 in 10.0 mi SSW 5.8 mph - N/A   Overcast
1:35 AM 44.6 °F 43.1 °F 42.8 °F 93% 29.97 in 10.0 mi South 3.5 mph - N/A   Overcast
1:55 AM 44.6 °F 43.1 °F 42.8 °F 93% 29.97 in 10.0 mi South 3.5 mph - N/A   Overcast
2:15 AM 44.6 °F 40.7 °F 44.6 °F 100% 29.98 in 7.0 mi SSW 6.9 mph - N/A   Overcast
2:35 AM 44.6 °F 40.7 °F 44.6 °F 100% 29.98 in 10.0 mi SSW 6.9 mph - N/A   Overcast
2:55 AM 44.6 °F 41.4 °F 44.6 °F 100% 29.98 in 7.0 mi SSW 5.8 mph - N/A   Overcast
3:35 AM 44.6 °F 42.2 °F 44.6 °F 100% 30.00 in 7.0 mi SW 4.6 mph - N/A   Overcast
3:55 AM 44.6 °F 42.2 °F 44.6 °F 100% 30.00 in 7.0 mi SW 4.6 mph - N/A   Overcast
4:15 AM 44.6 °F 41.4 °F 44.6 °F 100% 30.01 in 7.0 mi SW 5.8 mph - N/A   Overcast
4:35 AM 44.6 °F - 44.6 °F 100% 30.01 in 5.0 mi Calm Calm - N/A   Overcast
4:55 AM 44.6 °F 43.1 °F 44.6 °F 100% 30.01 in 5.0 mi SW 3.5 mph - N/A   Overcast
5:15 AM 44.6 °F 40.7 °F 44.6 °F 100% 30.02 in 5.0 mi WSW 6.9 mph - N/A   Overcast
5:35 AM 44.6 °F 42.2 °F 44.6 °F 100% 30.02 in 4.0 mi WSW 4.6 mph - N/A   Overcast
5:55 AM 44.6 °F 43.1 °F 44.6 °F 100% 30.03 in 3.0 mi SW 3.5 mph - N/A   Overcast
6:15 AM 44.6 °F 41.4 °F 44.6 °F 100% 30.04 in 1.8 mi WSW 5.8 mph - N/A   Overcast
6:35 AM 44.6 °F 42.2 °F 44.6 °F 100% 30.05 in 1.5 mi West 4.6 mph - N/A   Overcast
6:55 AM 44.6 °F 43.1 °F 42.8 °F 93% 30.06 in 1.2 mi WNW 3.5 mph - N/A   Overcast
7:15 AM 42.8 °F - 42.8 °F 100% 30.07 in 1.0 mi Calm Calm - N/A   Overcast
7:35 AM 42.8 °F - 42.8 °F 100% 30.07 in 1.5 mi Calm Calm - N/A   Overcast
7:55 AM 42.8 °F - 42.8 °F 100% 30.08 in 0.2 mi Calm Calm - N/A Fog Fog
8:15 AM 42.8 °F - 42.8 °F 100% 30.08 in 0.2 mi Calm Calm - N/A Fog Fog
8:35 AM 42.8 °F - 42.8 °F 100% 30.09 in 0.2 mi Calm Calm - N/A Fog Fog
9:15 AM 42.8 °F - 42.8 °F 100% 30.10 in 0.2 mi Calm Calm - N/A Fog Fog
9:35 AM 42.8 °F - 42.8 °F 100% 30.10 in 0.2 mi Calm Calm - N/A Fog Fog
9:55 AM 44.6 °F - 42.8 °F 93% 30.11 in 0.2 mi Calm Calm - N/A Fog Fog
10:35 AM 44.6 °F - 44.6 °F 100% 30.10 in 0.8 mi Calm Calm - N/A   Overcast
10:55 AM 44.6 °F - 44.6 °F 100% 30.10 in 0.8 mi Calm Calm - N/A   Overcast
11:15 AM 44.6 °F - 44.6 °F 100% 30.09 in 2.5 mi Calm Calm - N/A   Overcast
11:35 AM 46.4 °F - 44.6 °F 93% 30.08 in 10.0 mi Calm Calm - N/A   Overcast
11:55 AM 46.4 °F - 44.6 °F 93% 30.08 in 10.0 mi Calm Calm - N/A   Overcast
12:15 PM 48.2 °F - 44.6 °F 87% 30.08 in 10.0 mi Calm Calm - N/A   Scattered Clouds
12:35 PM 48.2 °F - 44.6 °F 87% 30.07 in 10.0 mi Calm Calm - N/A   Clear
12:55 PM 50.0 °F - 44.6 °F 82% 30.06 in 10.0 mi Calm Calm - N/A   Clear
1:15 PM 51.8 °F - 46.4 °F 82% 30.06 in 10.0 mi Calm Calm - N/A   Clear
1:35 PM 53.6 °F - 46.4 °F 77% 30.06 in 10.0 mi Calm Calm - N/A   Clear
1:55 PM 55.4 °F - 46.4 °F 72% 30.05 in 10.0 mi Calm Calm - N/A   Clear
2:15 PM 57.2 °F - 46.4 °F 67% 30.05 in 10.0 mi Calm Calm - N/A   Clear
2:35 PM 57.2 °F - 46.4 °F 67% 30.05 in 10.0 mi Calm Calm - N/A   Clear
2:55 PM 59.0 °F - 44.6 °F 59% 30.05 in 10.0 mi Calm Calm - N/A   Clear
3:15 PM 60.8 °F - 39.2 °F 45% 30.06 in 10.0 mi Calm Calm - N/A   Clear
3:35 PM 60.8 °F - 41.0 °F 48% 30.06 in 10.0 mi Calm Calm - N/A   Clear
3:55 PM 60.8 °F - 39.2 °F 45% 30.07 in 10.0 mi Calm Calm - N/A   Clear
4:15 PM 60.8 °F - 39.2 °F 45% 30.07 in 10.0 mi Calm Calm - N/A   Clear
4:35 PM 60.8 °F - 39.2 °F 45% 30.08 in 10.0 mi Calm Calm - N/A   Clear
4:55 PM 60.8 °F - 39.2 °F 45% 30.09 in 10.0 mi Calm Calm - N/A   Clear
5:15 PM 53.6 °F - 41.0 °F 62% 30.09 in 10.0 mi Calm Calm - N/A   Clear
5:35 PM 48.2 °F - 41.0 °F 76% 30.11 in 10.0 mi Calm Calm - N/A   Clear
5:55 PM 46.4 °F - 39.2 °F 76% 30.11 in 10.0 mi Calm Calm - N/A   Clear
6:15 PM 42.8 °F - 39.2 °F 87% 30.12 in 10.0 mi Calm Calm - N/A   Clear
6:35 PM 41.0 °F - 37.4 °F 87% 30.13 in 10.0 mi Calm Calm - N/A   Clear
6:55 PM 39.2 °F - 37.4 °F 93% 30.14 in 10.0 mi Calm Calm - N/A   Clear
7:15 PM 41.0 °F - 39.2 °F 93% 30.15 in 10.0 mi Calm Calm - N/A   Clear
7:35 PM 37.4 °F - 37.4 °F 100% 30.16 in 10.0 mi Calm Calm - N/A   Clear
7:55 PM 37.4 °F - 35.6 °F 93% 30.16 in 10.0 mi Calm Calm - N/A   Clear
8:35 PM 37.4 °F - 35.6 °F 93% 30.17 in 10.0 mi Calm Calm - N/A   Clear
8:55 PM 35.6 °F - 35.6 °F 100% 30.18 in 10.0 mi Calm Calm - N/A   Clear
9:15 PM 35.6 °F - 33.8 °F 93% 30.19 in 10.0 mi Calm Calm - N/A   Clear
9:35 PM 35.6 °F - 33.8 °F 93% 30.19 in 10.0 mi Calm Calm - N/A   Clear
9:55 PM 33.8 °F - 32.0 °F 93% 30.19 in 10.0 mi Calm Calm - N/A   Clear
10:15 PM 33.8 °F - 33.8 °F 100% 30.19 in 7.0 mi Calm Calm - N/A   Clear
10:35 PM 33.8 °F - 33.8 °F 100% 30.20 in 7.0 mi Calm Calm - N/A   Clear
10:55 PM 33.8 °F - 32.0 °F 93% 30.20 in 10.0 mi Calm Calm - N/A   Clear
11:15 PM 30.2 °F - 30.2 °F 100% 30.21 in 7.0 mi Calm Calm - N/A   Clear
11:35 PM 32.0 °F - 32.0 °F 100% 30.21 in 10.0 mi Calm Calm - N/A   Clear
11:55 PM 32.0 °F - 30.2 °F 93% 30.22 in 7.0 mi Calm Calm - N/A   Clear